Location: St. Louis
(38.6270°N, 90.1994°W)
Time: 19:12:09
(UTC-06:00)

X-37B - Pass Details

Date: 07 December 2022
Orbit: 277 x 277 km, 45.0° (Epoch: 01 November)

Event Time Altitude Azimuth Distance (km) Brightness Sun altitude
Rises 17:27:00 0° 229° (SW) 1,902 5.7 -9.3°
Reaches altitude 10° 17:28:57 10° 222° (SW) 1,093 4.0 -9.6°
Maximum altitude 17:31:17 42° 149° (SSE) 407 0.6 -10.0°
Enters shadow 17:32:48 18° 83° (E) 776 1.5 -10.3°
